View from above orbital plane
|
View from above satellite
|
Ground track
|
The orbit data is extracted from the following two-line orbital elements,
1 32790U 08021H 21023.46990246 .00000220 00000-0 29399-4 0 9990
2 32790 97.6039 6.4065 0014916 124.3665 235.8966 14.88265809690573
Epoch (UTC): | 23 January 2021 11:16:39 |
Eccentricity: | 0.0014916 |
inclination: | 97.6039° |
perigee height: | 593 km |
apogee height: | 614 km |
right ascension of ascending node: | 6.4065° |
argument of perigee: | 124.3665° |
revolutions per day: | 14.88265809 |
mean anomaly at epoch: | 235.8966° |
orbit number at epoch: | 69057 |
The dashed part of the orbit path shows where the satellite is in the earth's shadow,
|
|